Terminal Aerodrome Forecast
Issued by NWS Newport/Morehead City, NC

Home | Current Version | Previous Version | Graphics & Text | Print | Product List | Glossary On
Versions: 1 2 3 4 5 6 7 8 9 10 11 12 13 14
284
FTUS42 KMHX 211141
TAFEWN
TAF
KEWN 211141Z 2112/2212 23006KT 6SM SHRA BKN060
     FM211600 26006KT P6SM VCSH BKN035
     FM212100 22006KT P6SM BKN060=

USA.gov is the U.S. government's official web portal to all federal, state and local government web resources and services.